, AK

(GMT )
Anchorage

Weather History for PANC - August, 2013

Change the Weather History Date:

Wednesday, August 21, 2013

  Actual Average Record
Temperature  
Mean Temperature 54 °F 56 °F  
Max Temperature 56 °F 63 °F 82 °F (1977)
Min Temperature 52 °F 49 °F 38 °F (1954)
Degree Days  
Heating Degree Days 11    
Month to date heating degree days 139  
Since 1 June heating degree days 434  
Since 1 July heating degree days 250  
Cooling Degree Days 0    
Month to date cooling degree days 0  
Year to date cooling degree days 21  
Since 1 June cooling degree days 21  
Growing Degree Days 6 (Base 50)    
Moisture  
Dew Point 49 °F    
Average Humidity 75    
Maximum Humidity 83    
Minimum Humidity 67    
Precipitation  
Precipitation 0.10 in 0.11 in 2.76 in (1997)
Month to date precipitation 3.90 2.09  
Year to date precipitation 11.84 8.13  
Snow  
Snow 0.00 in 0.00 in 0.00 in ()
Month to date snowfall 0.0 0.0  
Since 1 June snowfall 0.0 0.0  
Since 1 July snowfall 0.0 0.0  
Snow Depth 0.00 in    
Sea Level Pressure  
Sea Level Pressure 29.81 in    
Wind  
Wind Speed 13 mph (SE)    
Max Wind Speed 15 mph    
Max Gust Speed 31 mph    
Visibility 9 miles    
Events Rain    
T = Trace of Precipitation, MM = Missing Value Source: NWS Daily Summary

Daily Weather History Graph

Daily Weather History Graph

Search for Another Location

Airport or City:

Astronomy

Aug. 21, 2013 Rise Set
Actual Time 6:25 AM AKDT 9:39 PM AKDT
Civil Twilight 5:33 AM AKDT 10:29 PM AKDT
Nautical Twilight 4:20 AM AKDT 11:41 PM AKDT
Astronomical Twilight 2:35 AM AKDT 1:30 AM AKDT
Moon 9:12 PM AKDT (8/21) 7:48 AM AKDT (8/21)
Length of Visible Light 16h 55m
Length of Day
15h 13m
Full, 99% of the Moon is Illuminated
Aug 21
Full
Aug 28
Last Quarter
Sep 5
New
Sep 12
First Quarter
Sep 19
Full

Hourly Weather History & Observations

Time (AKDT) Temp. Dew Point Humidity Pressure Visibility Wind Dir Wind Speed Gust Speed Precip Events Conditions
12:53 AM 57.9 °F 46.0 °F 65% 29.85 in 10.0 mi SSE 12.7 mph 21.9 mph N/A   Overcast
1:53 AM 55.9 °F 46.9 °F 72% 29.86 in 10.0 mi South 11.5 mph 19.6 mph 0.00 in Rain Light Rain
2:53 AM 54.0 °F 48.0 °F 80% 29.86 in 10.0 mi SSE 11.5 mph - 0.01 in Rain Light Rain
3:53 AM 54.0 °F 48.0 °F 80% 29.86 in 10.0 mi SSE 11.5 mph 20.7 mph 0.01 in Rain Light Rain
4:53 AM 54.0 °F 48.0 °F 80% 29.85 in 10.0 mi SSE 13.8 mph 20.7 mph 0.00 in Rain Light Rain
5:53 AM 55.0 °F 46.9 °F 74% 29.84 in 10.0 mi SSE 11.5 mph 19.6 mph 0.00 in   Overcast
6:53 AM 55.0 °F 46.0 °F 72% 29.83 in 10.0 mi SSE 13.8 mph 23.0 mph 0.00 in Rain Light Rain
7:53 AM 55.0 °F 46.9 °F 74% 29.83 in 10.0 mi SSE 13.8 mph 24.2 mph 0.00 in Rain Light Rain
8:53 AM 55.0 °F 46.9 °F 74% 29.83 in 10.0 mi SSE 15.0 mph - 0.00 in Rain Light Rain
9:53 AM 54.0 °F 48.0 °F 80% 29.82 in 10.0 mi SSE 13.8 mph 25.3 mph 0.01 in Rain Light Rain
10:50 AM 55.4 °F 48.2 °F 77% 29.82 in 10.0 mi SE 15.0 mph 24.2 mph 0.00 in Rain Light Rain
10:53 AM 55.0 °F 48.0 °F 77% 29.82 in 10.0 mi SE 12.7 mph - 0.00 in Rain Light Rain
11:24 AM 55.4 °F 48.2 °F 77% 29.81 in 7.0 mi SE 15.0 mph 23.0 mph 0.01 in Rain Light Rain
11:53 AM 55.0 °F 48.0 °F 77% 29.82 in 6.0 mi SSE 13.8 mph 19.6 mph 0.02 in Rain Light Rain
12:53 PM 55.0 °F 48.9 °F 80% 29.81 in 6.0 mi SSE 11.5 mph 23.0 mph 0.02 in Rain Light Rain
1:53 PM 55.9 °F 48.9 °F 77% 29.81 in 6.0 mi SSE 12.7 mph 28.8 mph 0.01 in Rain Light Rain
1:55 PM 55.4 °F 50.0 °F 82% 29.81 in 6.0 mi SE 12.7 mph 28.8 mph 0.00 in Rain Light Rain
2:53 PM 57.0 °F 52.0 °F 83% 29.80 in 6.0 mi Variable 4.6 mph - 0.01 in Rain Light Rain
3:53 PM 55.9 °F 50.0 °F 80% 29.80 in 7.0 mi SE 10.4 mph 23.0 mph 0.01 in Rain Light Rain
3:57 PM 55.4 °F 50.0 °F 82% 29.79 in 7.0 mi SE 11.5 mph - 0.01 in Rain Light Rain
4:53 PM 55.9 °F 50.0 °F 80% 29.79 in 10.0 mi SSE 12.7 mph 24.2 mph 0.03 in Rain Light Rain
5:53 PM 55.0 °F 52.0 °F 89% 29.78 in 10.0 mi NE 3.5 mph - 0.02 in Rain Light Rain
6:53 PM 55.0 °F 52.0 °F 89% 29.77 in 7.0 mi NE 4.6 mph - 0.04 in Rain Light Rain
7:53 PM 55.0 °F 51.1 °F 86% 29.77 in 10.0 mi Calm Calm - 0.02 in Rain Light Rain
8:53 PM 54.0 °F 51.1 °F 90% 29.76 in 10.0 mi East 3.5 mph - 0.02 in Rain Light Rain
9:53 PM 55.0 °F 51.1 °F 86% 29.77 in 10.0 mi East 3.5 mph - 0.02 in Rain Light Rain
10:53 PM 54.0 °F 51.1 °F 90% 29.77 in 10.0 mi NE 3.5 mph - 0.03 in Rain Light Rain
11:53 PM 54.0 °F 51.1 °F 90% 29.76 in 10.0 mi Calm Calm - 0.03 in Rain Light Rain